SDM6574 UNKL-ULLI

Flight info

Callsign SDM6574
Flight time N/A
Altitude 34000
Route BASEL B938 SURIP T631 SOTIM/K0832F360 T631 NWK M59 SORLI P989 NETLU T756 ODNUS L870 ROMUM T816 AMDEN P979 BEPOL
Aircraft A320/M-SDE3FGHIRWY/LB1

Departure

Time 2026-05-01 07:47
Airport Krasnoyarsk International Airport (UNKL)

Arrival

Time N/A
Airport Pulkovo Airport (ULLI)
Time Latitude Longitude Altitude Speed Heading
2026-05-01 07:23 56.17929 92.48618 957 ft 0 kts 24°
2026-05-01 07:29 56.17909 92.48604 954 ft 4 kts 15°
2026-05-01 07:29 56.17883 92.48596 954 ft 4 kts
2026-05-01 07:29 56.17857 92.48602 954 ft 4 kts 334°
2026-05-01 07:30 56.17840 92.48628 953 ft 2 kts 293°
2026-05-01 07:30 56.17839 92.48629 954 ft 0 kts 292°
2026-05-01 07:37 56.17863 92.48511 955 ft 7 kts 274°
2026-05-01 07:37 56.17840 92.48460 954 ft 5 kts 204°
2026-05-01 07:37 56.17796 92.48425 955 ft 10 kts 203°
2026-05-01 07:38 56.17733 92.48430 954 ft 9 kts 130°
2026-05-01 07:38 56.17712 92.48521 954 ft 7 kts 112°
2026-05-01 07:38 56.17661 92.48738 956 ft 14 kts 114°
2026-05-01 07:39 56.17618 92.48914 955 ft 15 kts 114°
2026-05-01 07:39 56.17578 92.49081 955 ft 15 kts 112°
2026-05-01 07:39 56.17503 92.49405 955 ft 14 kts 112°
2026-05-01 07:40 56.17468 92.49554 954 ft 12 kts 112°
2026-05-01 07:40 56.17437 92.49685 955 ft 11 kts 112°
2026-05-01 07:40 56.17409 92.49808 954 ft 10 kts 112°
2026-05-01 07:40 56.17373 92.49958 957 ft 17 kts 114°
2026-05-01 07:41 56.17325 92.50150 953 ft 16 kts 113°
2026-05-01 07:41 56.17283 92.50333 955 ft 15 kts 112°
2026-05-01 07:41 56.17207 92.50650 954 ft 14 kts 112°
2026-05-01 07:42 56.17171 92.50804 954 ft 13 kts 112°
2026-05-01 07:42 56.17139 92.50935 953 ft 11 kts 114°
2026-05-01 07:42 56.17104 92.51077 955 ft 13 kts 113°
2026-05-01 07:42 56.17070 92.51219 954 ft 13 kts 113°
2026-05-01 07:43 56.17032 92.51378 956 ft 15 kts 113°
2026-05-01 07:43 56.16990 92.51556 955 ft 15 kts 112°
2026-05-01 07:43 56.16917 92.51866 955 ft 11 kts 113°
2026-05-01 07:44 56.16837 92.52016 955 ft 7 kts 175°
2026-05-01 07:44 56.16709 92.52039 954 ft 10 kts 177°
2026-05-01 07:45 56.16664 92.51988 954 ft 7 kts 269°
2026-05-01 07:45 56.16674 92.51941 955 ft 0 kts 293°
2026-05-01 07:46 56.16762 92.51563 955 ft 69 kts 293°
2026-05-01 07:47 56.17031 92.50429 954 ft 128 kts 293°
2026-05-01 07:47 56.17447 92.48679 957 ft 174 kts 292°
2026-05-01 07:47 56.17966 92.46590 1373 ft 191 kts 295°
2026-05-01 07:47 56.18560 92.44379 1964 ft 199 kts 294°
2026-05-01 07:48 56.19687 92.39582 3159 ft 216 kts 291°
2026-05-01 07:48 56.20266 92.37015 3690 ft 227 kts 291°
2026-05-01 07:48 56.20945 92.34353 4208 ft 242 kts 303°
2026-05-01 07:49 56.22184 92.32262 4718 ft 251 kts 326°
2026-05-01 07:49 56.25176 92.28890 5903 ft 256 kts 326°
2026-05-01 07:49 56.26701 92.27180 6536 ft 259 kts 326°
2026-05-01 07:50 56.28230 92.25463 7148 ft 259 kts 326°
2026-05-01 07:50 56.30789 92.22580 8184 ft 262 kts 326°
2026-05-01 07:50 56.32341 92.20824 8823 ft 264 kts 326°
2026-05-01 07:51 56.34404 92.18477 9690 ft 265 kts 326°
2026-05-01 07:51 56.35970 92.16697 10338 ft 266 kts 326°
2026-05-01 07:51 56.37536 92.14914 10949 ft 267 kts 325°
2026-05-01 07:52 56.40252 92.11809 11546 ft 292 kts 326°
2026-05-01 07:52 56.42040 92.09753 11670 ft 315 kts 326°
2026-05-01 07:52 56.43907 92.07607 12035 ft 327 kts 326°
2026-05-01 07:53 56.47795 92.03153 13361 ft 333 kts 326°
2026-05-01 07:53 56.49762 92.00901 14019 ft 335 kts 326°
2026-05-01 07:53 56.51735 91.98641 14609 ft 337 kts 326°
2026-05-01 07:53 56.53718 91.96368 15207 ft 338 kts 326°
2026-05-01 07:54 56.57718 91.91768 16414 ft 342 kts 325°
2026-05-01 07:55 56.63782 91.84761 18141 ft 347 kts 325°
2026-05-01 07:55 56.67853 91.80040 19134 ft 351 kts 325°
2026-05-01 07:56 56.74067 91.72791 20551 ft 356 kts 325°
2026-05-01 07:56 56.78157 91.67653 21447 ft 358 kts 321°
2026-05-01 07:57 56.80147 91.64889 21888 ft 360 kts 321°
2026-05-01 07:57 56.84112 91.59242 22785 ft 364 kts 321°
2026-05-01 07:58 56.88136 91.53575 23657 ft 367 kts 321°
2026-05-01 07:58 56.92216 91.47891 24365 ft 370 kts 321°
2026-05-01 07:59 56.96275 91.42030 25048 ft 372 kts 315°
2026-05-01 07:59 56.99459 91.34625 25714 ft 374 kts 306°
2026-05-01 08:00 57.05531 91.18954 27033 ft 379 kts 306°
2026-05-01 08:01 57.10125 91.07003 27914 ft 384 kts 305°
2026-05-01 08:01 57.11668 91.02981 28269 ft 385 kts 305°
2026-05-01 08:01 57.13213 90.98954 28598 ft 386 kts 305°
2026-05-01 08:02 57.16309 90.90861 29176 ft 388 kts 305°
2026-05-01 08:02 57.17865 90.86780 29452 ft 389 kts 305°
2026-05-01 08:03 57.20967 90.78622 29998 ft 392 kts 305°
2026-05-01 08:03 57.22536 90.74499 30249 ft 393 kts 305°
2026-05-01 08:03 57.25674 90.66220 30792 ft 392 kts 305°
2026-05-01 08:04 57.28786 90.57970 31378 ft 390 kts 304°
2026-05-01 08:04 57.31893 90.49711 31902 ft 390 kts 304°
2026-05-01 08:05 57.34957 90.41516 32474 ft 389 kts 304°
2026-05-01 08:05 57.36493 90.37393 32758 ft 388 kts 304°
2026-05-01 08:05 57.38025 90.33283 33051 ft 387 kts 304°
2026-05-01 08:06 57.41066 90.25111 33772 ft 382 kts 304°
2026-05-01 08:06 57.44073 90.17002 34100 ft 378 kts 304°
2026-05-01 08:07 57.47029 90.09003 34100 ft 374 kts 303°
2026-05-01 08:08 57.51439 89.97015 34085 ft 374 kts 303°
2026-05-01 08:09 57.57295 89.81011 34097 ft 375 kts 303°
2026-05-01 08:09 57.60227 89.72967 34098 ft 375 kts 303°
2026-05-01 08:10 57.66063 89.56828 34126 ft 374 kts 303°
2026-05-01 08:11 57.71853 89.40713 34111 ft 372 kts 303°
2026-05-01 08:12 57.76221 89.28690 34105 ft 372 kts 303°
2026-05-01 08:13 57.80566 89.16695 34098 ft 372 kts 303°
2026-05-01 08:13 57.84903 89.04591 34103 ft 372 kts 303°
2026-05-01 08:14 57.87796 88.96521 34103 ft 373 kts 303°
2026-05-01 08:14 57.90687 88.88421 34099 ft 372 kts 303°
2026-05-01 08:15 57.95003 88.76257 34101 ft 372 kts 302°
2026-05-01 08:16 57.97854 88.68208 34100 ft 371 kts 302°
2026-05-01 08:16 57.99278 88.64160 34099 ft 371 kts 302°